{"data":{"norad_id":53560,"intl_designator":"2022-101AK","name":"STARLINK-4564","alt_names":[],"object_type":"PAYLOAD","status":"ACTIVE","operator":null,"country":"US","launch_date":"2022-08-19","launch_site_code":"AFETR","launch_vehicle":null,"mission":null,"orbit_class":"UNKNOWN","rcs_meters":null,"size_class":null,"mass_kg":null,"dimensions":null,"purposes":["comms"],"wikipedia_slug":null,"has_3d_model":false,"image_url":null,"decayed_at":null,"tle_current":{"epoch":"2026-09-20T08:37:20.482176Z","epoch_age_seconds":90697,"freshness":"FRESH","line1":"1 53560U 22101AK  26263.35926484 -.00000134  00000+0  74365-5 0  9993","line2":"2 53560  53.1583 250.4503 0001279  78.0347 282.0798 15.31699094225960","mean_motion":15.31699094,"eccentricity":0.0001279,"inclination_deg":53.1583,"raan_deg":250.4503,"arg_perigee_deg":78.0347,"mean_anomaly_deg":282.0798,"bstar":7.4365e-6,"rev_number":22596,"period_min":94.013243569889,"perigee_km":469.86672425272,"apogee_km":471.61866767895,"semimajor_km":6848.8796959658,"source":"CELESTRAK","updated_at":"2026-09-21T09:00:32.927439Z"}}}